Simultaneous Nadir Overpasses (SNOs) Predictions

Prediction of SNOs between GOES-15 and NPP Satellite Orbit:

Table of predicted SNOs for the next 14.0 days since TLE Epoch: 1/29/2022
Index Date Time (GOES-15) GOES-15 Lat,Lon NPP Lat,Lon Distance(km) Time Diff (sec)
1 01/30/2022 10:14:25 -0.02,-128.30 0.78,-131.80 399.75 80
2 01/31/2022 09:52:59 -0.02,-128.29 -0.22,-127.26 116.10 80
3 02/01/2022 22:14:53 0.03,-128.29 -0.95,-132.56 487.88 80
4 02/02/2022 21:58:47 0.02,-128.28 0.05,-128.02 28.28 80
5 02/05/2022 10:01:47 -0.02,-128.23 0.07,-128.76 59.36 80
6 02/06/2022 09:40:20 -0.02,-128.22 -0.93,-124.22 456.31 80
7 02/07/2022 22:02:13 0.02,-128.21 -0.29,-129.50 147.65 80
8 02/08/2022 21:46:07 0.01,-128.20 0.71,-124.96 367.94 80
9 02/10/2022 10:07:52 0.01,-128.16 0.47,-130.22 235.63 80
10 02/11/2022 09:46:26 0.01,-128.14 -0.53,-125.68 279.26 80
